WWA2482 KORF-KBOS

Flight info

Callsign WWA2482
Flight time 1h 20m
Altitude 35000
Route NUTIY1 NUTIY HOUKY BBOBO Q22 RBV Q419 JFK ROBUC3
Aircraft CRJ9/M-SDFGIRWY/S

Departure

Time 2026-05-08 01:35
Airport Norfolk International Airport (KORF)

Arrival

Time 2026-05-08 02:56
Airport Boston Logan International Airport (KBOS)
Time Latitude Longitude Altitude Speed Heading
2026-05-08 01:15 36.89661 -76.20103 36 ft 0 kts 292°
2026-05-08 01:26 36.89660 -76.20102 36 ft 1 kts 292°
2026-05-08 01:26 36.89649 -76.20075 36 ft 4 kts 304°
2026-05-08 01:26 36.89632 -76.20049 36 ft 4 kts 313°
2026-05-08 01:26 36.89622 -76.20037 36 ft 1 kts 314°
2026-05-08 01:27 36.89622 -76.20035 36 ft 0 kts 314°
2026-05-08 01:27 36.89623 -76.20049 36 ft 0 kts 37°
2026-05-08 01:29 36.89642 -76.20030 36 ft 7 kts 38°
2026-05-08 01:30 36.89709 -76.19963 36 ft 18 kts 38°
2026-05-08 01:30 36.89812 -76.19863 32 ft 19 kts 38°
2026-05-08 01:30 36.89914 -76.19765 33 ft 18 kts 37°
2026-05-08 01:30 36.90019 -76.19664 32 ft 20 kts 37°
2026-05-08 01:31 36.90130 -76.19559 35 ft 19 kts 33°
2026-05-08 01:31 36.90252 -76.19483 33 ft 20 kts 28°
2026-05-08 01:31 36.90360 -76.19379 34 ft 20 kts 37°
2026-05-08 01:31 36.90470 -76.19272 32 ft 19 kts 38°
2026-05-08 01:32 36.90574 -76.19172 29 ft 15 kts 38°
2026-05-08 01:32 36.90610 -76.19107 30 ft 2 kts 86°
2026-05-08 01:32 36.90609 -76.19101 30 ft 3 kts 103°
2026-05-08 01:32 36.90591 -76.19054 31 ft 5 kts 123°
2026-05-08 01:33 36.90585 -76.19042 32 ft 0 kts 124°
2026-05-08 01:33 36.90584 -76.19041 32 ft 1 kts 124°
2026-05-08 01:34 36.90564 -76.19009 32 ft 9 kts 130°
2026-05-08 01:34 36.90513 -76.18980 33 ft 9 kts 198°
2026-05-08 01:34 36.90426 -76.19055 33 ft 27 kts 217°
2026-05-08 01:34 36.90095 -76.19374 36 ft 97 kts 217°
2026-05-08 01:35 36.89377 -76.20063 40 ft 159 kts 217°
2026-05-08 01:35 36.88413 -76.21012 388 ft 183 kts 219°
2026-05-08 01:35 36.87430 -76.21985 1172 ft 184 kts 217°
2026-05-08 01:35 36.86364 -76.22966 1833 ft 192 kts 218°
2026-05-08 01:36 36.85260 -76.23951 2532 ft 200 kts 217°
2026-05-08 01:36 36.84024 -76.25010 2852 ft 232 kts 216°
2026-05-08 01:36 36.82620 -76.26190 3434 ft 255 kts 217°
2026-05-08 01:36 36.81038 -76.27489 3815 ft 286 kts 216°
2026-05-08 01:37 36.79410 -76.28801 3945 ft 275 kts 216°
2026-05-08 01:37 36.77806 -76.30082 4018 ft 273 kts 216°
2026-05-08 01:37 36.76206 -76.31353 4032 ft 272 kts 216°
2026-05-08 01:37 36.74607 -76.32619 4034 ft 272 kts 216°
2026-05-08 01:38 36.73008 -76.33885 4033 ft 272 kts 216°
2026-05-08 01:38 36.71410 -76.35147 4030 ft 272 kts 216°
2026-05-08 01:38 36.69814 -76.36409 4028 ft 272 kts 216°
2026-05-08 01:38 36.68218 -76.37672 4025 ft 271 kts 216°
2026-05-08 01:39 36.66626 -76.38934 4023 ft 271 kts 217°
2026-05-08 01:39 36.65228 -76.40426 4149 ft 269 kts 231°
2026-05-08 01:39 36.64007 -76.42159 5172 ft 265 kts 236°
2026-05-08 01:39 36.63315 -76.44211 6126 ft 257 kts 269°
2026-05-08 01:40 36.63780 -76.46317 7024 ft 258 kts 304°
2026-05-08 01:40 36.65223 -76.47665 7862 ft 271 kts 338°
2026-05-08 01:40 36.67128 -76.48037 8655 ft 281 kts 346°
2026-05-08 01:40 36.69050 -76.48523 9458 ft 283 kts 340°
2026-05-08 01:41 36.70992 -76.49086 10193 ft 292 kts 339°
2026-05-08 01:41 36.73068 -76.49676 10365 ft 319 kts 340°
2026-05-08 01:41 36.75316 -76.50290 10657 ft 341 kts 341°
2026-05-08 01:41 36.77711 -76.50886 11012 ft 359 kts 342°
2026-05-08 01:42 36.80218 -76.51510 11411 ft 374 kts 342°
2026-05-08 01:42 36.82800 -76.52145 12054 ft 380 kts 342°
2026-05-08 01:42 36.85415 -76.52771 12766 ft 385 kts 342°
2026-05-08 01:42 36.88070 -76.53381 13469 ft 390 kts 342°
2026-05-08 01:43 36.90750 -76.54028 14129 ft 394 kts 341°
2026-05-08 01:43 36.93360 -76.54852 14769 ft 386 kts 329°
2026-05-08 01:43 36.95551 -76.56639 15447 ft 373 kts 312°
2026-05-08 01:43 36.97384 -76.58909 16095 ft 369 kts 305°
2026-05-08 01:44 36.99028 -76.61387 16731 ft 370 kts 302°
2026-05-08 01:44 37.00624 -76.63917 17354 ft 372 kts 302°
2026-05-08 01:44 37.02238 -76.66463 17968 ft 374 kts 302°
2026-05-08 01:44 37.03883 -76.69009 18534 ft 377 kts 303°
2026-05-08 01:45 37.05565 -76.71538 19048 ft 379 kts 303°
2026-05-08 01:45 37.07258 -76.74076 19568 ft 381 kts 303°
2026-05-08 01:45 37.08959 -76.76627 20076 ft 382 kts 303°
2026-05-08 01:45 37.10664 -76.79188 20590 ft 384 kts 303°
2026-05-08 01:46 37.12373 -76.81763 21073 ft 385 kts 303°
2026-05-08 01:46 37.14091 -76.84347 21532 ft 387 kts 303°
2026-05-08 01:46 37.15816 -76.86945 21996 ft 388 kts 302°
2026-05-08 01:46 37.17550 -76.89551 22476 ft 389 kts 302°
2026-05-08 01:47 37.19282 -76.92163 22924 ft 390 kts 302°
2026-05-08 01:47 37.21019 -76.94784 23340 ft 392 kts 302°
2026-05-08 01:47 37.22762 -76.97419 23734 ft 393 kts 302°
2026-05-08 01:48 37.26235 -77.02651 24540 ft 393 kts 302°
2026-05-08 01:48 37.27982 -77.05294 24878 ft 393 kts 301°
2026-05-08 01:48 37.29763 -77.07913 25196 ft 399 kts 306°
2026-05-08 01:48 37.32105 -77.09959 25496 ft 426 kts 324°
2026-05-08 01:49 37.34980 -77.11166 25788 ft 442 kts 333°
2026-05-08 01:49 37.37981 -77.12099 26065 ft 447 kts 335°
2026-05-08 01:49 37.41044 -77.12904 26336 ft 452 kts 337°
2026-05-08 01:49 37.44201 -77.13421 26598 ft 465 kts 344°
2026-05-08 01:50 37.47475 -77.13483 26853 ft 475 kts 348°
2026-05-08 01:50 37.49678 -77.13411 27042 ft 478 kts 349°
2026-05-08 01:50 37.52967 -77.13284 27672 ft 469 kts 349°
2026-05-08 01:50 37.56189 -77.13197 28345 ft 458 kts 347°
2026-05-08 01:51 37.59360 -77.13206 28757 ft 454 kts 346°
2026-05-08 01:51 37.62521 -77.13229 29111 ft 454 kts 346°
2026-05-08 01:51 37.65679 -77.13217 29457 ft 457 kts 349°
2026-05-08 01:51 37.68906 -77.12525 29754 ft 484 kts
2026-05-08 01:52 37.72125 -77.11191 30067 ft 490 kts
2026-05-08 01:52 37.75301 -77.09493 30322 ft 503 kts 14°
2026-05-08 01:52 37.78399 -77.07341 30537 ft 510 kts 18°
2026-05-08 01:52 37.81463 -77.05071 30788 ft 511 kts 18°
2026-05-08 01:53 37.84533 -77.02801 31006 ft 510 kts 17°
2026-05-08 01:53 37.87623 -77.00616 31219 ft 508 kts 15°
2026-05-08 01:53 37.90733 -76.98484 31455 ft 508 kts 15°
2026-05-08 01:53 37.93836 -76.96333 31763 ft 507 kts 15°
2026-05-08 01:54 37.96935 -76.94181 31988 ft 507 kts 15°
2026-05-08 01:54 38.00025 -76.92032 32163 ft 507 kts 15°
2026-05-08 01:54 38.03120 -76.89878 32383 ft 507 kts 15°
2026-05-08 01:54 38.06168 -76.87754 32582 ft 508 kts 15°
2026-05-08 01:55 38.09267 -76.85593 32739 ft 508 kts 15°
2026-05-08 01:55 38.12367 -76.83434 32934 ft 508 kts 15°
2026-05-08 01:55 38.15472 -76.81274 33240 ft 507 kts 15°
2026-05-08 01:55 38.18556 -76.79113 33538 ft 506 kts 15°
2026-05-08 01:56 38.21635 -76.76951 33726 ft 506 kts 15°
2026-05-08 01:56 38.24676 -76.74690 33901 ft 514 kts 20°
2026-05-08 01:56 38.27621 -76.72041 34068 ft 525 kts 26°
2026-05-08 01:56 38.30430 -76.69010 34234 ft 531 kts 30°
2026-05-08 01:57 38.33185 -76.65862 34429 ft 531 kts 31°
2026-05-08 01:57 38.35933 -76.62717 34663 ft 530 kts 31°
2026-05-08 01:57 38.38709 -76.59645 34812 ft 528 kts 30°
2026-05-08 01:57 38.41529 -76.56607 34874 ft 530 kts 29°
2026-05-08 01:58 38.47216 -76.50546 34922 ft 537 kts 30°
2026-05-08 01:58 38.52928 -76.44411 34921 ft 541 kts 30°
2026-05-08 01:59 38.58700 -76.38202 34949 ft 543 kts 30°
2026-05-08 01:59 38.64482 -76.31944 34937 ft 544 kts 30°
2026-05-08 02:00 38.70271 -76.25684 34938 ft 544 kts 30°
2026-05-08 02:00 38.76045 -76.19429 34990 ft 542 kts 30°
2026-05-08 02:01 38.81803 -76.13183 34936 ft 542 kts 30°
2026-05-08 02:01 38.87546 -76.06930 34943 ft 541 kts 31°
2026-05-08 02:02 38.93279 -76.00669 34937 ft 540 kts 31°
2026-05-08 02:02 38.98969 -75.94363 34946 ft 543 kts 33°
2026-05-08 02:03 39.04473 -75.87666 34901 ft 544 kts 34°
2026-05-08 02:03 39.09980 -75.80994 34895 ft 543 kts 33°
2026-05-08 02:04 39.15507 -75.74386 34926 ft 542 kts 34°
2026-05-08 02:04 39.21034 -75.67762 34900 ft 542 kts 34°
2026-05-08 02:05 39.26524 -75.61169 34885 ft 542 kts 34°
2026-05-08 02:05 39.32050 -75.54564 34882 ft 541 kts 33°
2026-05-08 02:06 39.37573 -75.47948 34907 ft 542 kts 34°
2026-05-08 02:06 39.43089 -75.41276 34866 ft 542 kts 34°
2026-05-08 02:07 39.48587 -75.34607 34879 ft 542 kts 34°
2026-05-08 02:07 39.54088 -75.27928 34921 ft 541 kts 35°
2026-05-08 02:08 39.59586 -75.21239 34884 ft 542 kts 35°
2026-05-08 02:08 39.65078 -75.14534 34880 ft 542 kts 35°
2026-05-08 02:09 39.70594 -75.08002 34879 ft 539 kts 33°
2026-05-08 02:09 39.76287 -75.01597 34867 ft 537 kts 32°
2026-05-08 02:10 39.81913 -74.95317 34891 ft 536 kts 32°
2026-05-08 02:10 39.87562 -74.88955 34896 ft 537 kts 32°
2026-05-08 02:11 39.93350 -74.82910 34934 ft 529 kts 26°
2026-05-08 02:11 39.99409 -74.77511 34908 ft 528 kts 25°
2026-05-08 02:12 40.05257 -74.71571 34900 ft 540 kts 36°
2026-05-08 02:12 40.10306 -74.64184 34920 ft 547 kts 43°
2026-05-08 02:13 40.15284 -74.56669 34888 ft 545 kts 41°
2026-05-08 02:13 40.20455 -74.49404 34884 ft 541 kts 36°
2026-05-08 02:14 40.26162 -74.43174 34892 ft 531 kts 28°
2026-05-08 02:14 40.31997 -74.37208 34920 ft 534 kts 31°
2026-05-08 02:15 40.37702 -74.31051 34889 ft 534 kts 31°
2026-05-08 02:15 40.43452 -74.24891 34881 ft 533 kts 31°
2026-05-08 02:16 40.49026 -74.18385 34917 ft 533 kts 32°
2026-05-08 02:16 40.54111 -74.11184 34904 ft 549 kts 53°
2026-05-08 02:17 40.56043 -74.06822 34734 ft 556 kts 60°
2026-05-08 02:17 40.57678 -74.02183 34296 ft 555 kts 67°
2026-05-08 02:17 40.58854 -73.97465 33818 ft 546 kts 74°
2026-05-08 02:17 40.59825 -73.92659 33271 ft 539 kts 75°
2026-05-08 02:18 40.60779 -73.87911 32745 ft 533 kts 74°
2026-05-08 02:18 40.61809 -73.83252 32221 ft 528 kts 72°
2026-05-08 02:18 40.63160 -73.78800 31738 ft 522 kts 59°
2026-05-08 02:18 40.65057 -73.74770 31251 ft 514 kts 50°
2026-05-08 02:19 40.67253 -73.71107 30766 ft 503 kts 43°
2026-05-08 02:19 40.69605 -73.67799 30290 ft 488 kts 39°
2026-05-08 02:19 40.71961 -73.64613 29721 ft 482 kts 39°
2026-05-08 02:19 40.74253 -73.61404 29168 ft 478 kts 41°
2026-05-08 02:20 40.76467 -73.58152 28615 ft 474 kts 43°
2026-05-08 02:20 40.78652 -73.54907 28059 ft 470 kts 43°
2026-05-08 02:20 40.80819 -73.51716 27591 ft 465 kts 43°
2026-05-08 02:20 40.82969 -73.48575 27175 ft 455 kts 42°
2026-05-08 02:21 40.85043 -73.45538 27023 ft 439 kts 43°
2026-05-08 02:21 40.86992 -73.42621 27029 ft 420 kts 44°
2026-05-08 02:21 40.88879 -73.39696 26618 ft 416 kts 44°
2026-05-08 02:21 40.90770 -73.36823 26272 ft 412 kts 43°
2026-05-08 02:22 40.92685 -73.34027 25936 ft 409 kts 42°
2026-05-08 02:22 40.94595 -73.31247 25592 ft 406 kts 42°
2026-05-08 02:22 40.96490 -73.28493 25241 ft 403 kts 42°
2026-05-08 02:22 40.98366 -73.25745 24934 ft 401 kts 43°
2026-05-08 02:23 41.00216 -73.22996 24614 ft 399 kts 43°
2026-05-08 02:23 41.02058 -73.20255 24326 ft 397 kts 44°
2026-05-08 02:23 41.03893 -73.17526 24107 ft 395 kts 44°
2026-05-08 02:23 41.05709 -73.14799 23891 ft 394 kts 43°
2026-05-08 02:24 41.07552 -73.12132 23652 ft 392 kts 43°
2026-05-08 02:24 41.09392 -73.09477 23474 ft 391 kts 43°
2026-05-08 02:24 41.11194 -73.06781 23377 ft 391 kts 45°
2026-05-08 02:24 41.12950 -73.04098 23263 ft 390 kts 45°
2026-05-08 02:25 41.14742 -73.01403 23160 ft 390 kts 44°
2026-05-08 02:25 41.16549 -72.98687 23004 ft 396 kts 44°
2026-05-08 02:25 41.18397 -72.95915 22953 ft 406 kts 44°
2026-05-08 02:25 41.20285 -72.93076 22908 ft 413 kts 46°
2026-05-08 02:26 41.22041 -72.90005 22912 ft 425 kts 58°
2026-05-08 02:26 41.23407 -72.86445 22928 ft 440 kts 66°
2026-05-08 02:26 41.24654 -72.82657 22937 ft 456 kts 67°
2026-05-08 02:26 41.25982 -72.78752 22938 ft 470 kts 65°
2026-05-08 02:27 41.27465 -72.74809 22938 ft 484 kts 62°
2026-05-08 02:27 41.29055 -72.70795 22932 ft 497 kts 62°
2026-05-08 02:27 41.30689 -72.66673 22967 ft 510 kts 62°
2026-05-08 02:27 41.32325 -72.62423 22943 ft 522 kts 63°
2026-05-08 02:28 41.33983 -72.58073 22906 ft 530 kts 63°
2026-05-08 02:28 41.35620 -72.53737 22910 ft 532 kts 63°
2026-05-08 02:28 41.37284 -72.49330 22912 ft 532 kts 63°
2026-05-08 02:28 41.38935 -72.44966 22918 ft 522 kts 63°
2026-05-08 02:29 41.40548 -72.40699 22295 ft 517 kts 64°
2026-05-08 02:29 41.42171 -72.36396 21517 ft 519 kts 64°
2026-05-08 02:29 41.43757 -72.32169 21539 ft 501 kts 64°
2026-05-08 02:29 41.45300 -72.28079 21439 ft 489 kts 64°
2026-05-08 02:30 41.46816 -72.24049 21156 ft 482 kts 64°
2026-05-08 02:30 41.48297 -72.20097 20928 ft 470 kts 64°
2026-05-08 02:30 41.49691 -72.16259 20676 ft 460 kts 65°
2026-05-08 02:30 41.51083 -72.12448 20441 ft 452 kts 65°
2026-05-08 02:31 41.52454 -72.08702 20214 ft 447 kts 65°
2026-05-08 02:31 41.53810 -72.04992 19986 ft 443 kts 65°
2026-05-08 02:31 41.55150 -72.01309 19753 ft 439 kts 65°
2026-05-08 02:31 41.56404 -71.97613 19530 ft 434 kts 69°
2026-05-08 02:32 41.57514 -71.93878 19312 ft 429 kts 71°
2026-05-08 02:32 41.58566 -71.90166 19095 ft 424 kts 71°
2026-05-08 02:32 41.59612 -71.86509 18887 ft 418 kts 71°
2026-05-08 02:32 41.60651 -71.82909 18642 ft 414 kts 71°
2026-05-08 02:33 41.61699 -71.79340 18379 ft 411 kts 71°
2026-05-08 02:33 41.62741 -71.75797 18070 ft 409 kts 71°
2026-05-08 02:33 41.63772 -71.72313 17797 ft 405 kts 70°
2026-05-08 02:33 41.64802 -71.68820 17530 ft 402 kts 70°
2026-05-08 02:34 41.65820 -71.65354 17271 ft 399 kts 70°
2026-05-08 02:34 41.66827 -71.61919 16973 ft 396 kts 70°
2026-05-08 02:34 41.67826 -71.58490 16723 ft 393 kts 70°
2026-05-08 02:34 41.68831 -71.55105 16445 ft 390 kts 70°
2026-05-08 02:35 41.69825 -71.51738 16151 ft 388 kts 70°
2026-05-08 02:35 41.70802 -71.48388 15849 ft 384 kts 70°
2026-05-08 02:35 41.71757 -71.45106 15762 ft 372 kts 70°
2026-05-08 02:35 41.72733 -71.41929 15457 ft 368 kts 64°
2026-05-08 02:36 41.73963 -71.38951 15155 ft 363 kts 58°
2026-05-08 02:36 41.75046 -71.36613 14889 ft 360 kts 57°
2026-05-08 02:36 41.76603 -71.33270 14525 ft 356 kts 57°
2026-05-08 02:36 41.77875 -71.30446 14220 ft 352 kts 58°
2026-05-08 02:37 41.79097 -71.27623 13913 ft 348 kts 59°
2026-05-08 02:37 41.80283 -71.24807 13604 ft 344 kts 59°
2026-05-08 02:37 41.81444 -71.22065 13530 ft 332 kts 59°
2026-05-08 02:37 41.82200 -71.20292 13337 ft 330 kts 58°
2026-05-08 02:38 41.83345 -71.17608 12764 ft 337 kts 58°
2026-05-08 02:38 41.84876 -71.14024 12343 ft 331 kts 58°
2026-05-08 02:38 41.86009 -71.11352 12045 ft 328 kts 58°
2026-05-08 02:38 41.87121 -71.08704 11715 ft 324 kts 58°
2026-05-08 02:39 41.88218 -71.06084 11393 ft 321 kts 58°
2026-05-08 02:39 41.88963 -71.04337 11174 ft 318 kts 57°
2026-05-08 02:39 41.90062 -71.01775 10840 ft 315 kts 57°
2026-05-08 02:39 41.91154 -70.99240 10526 ft 312 kts 57°
2026-05-08 02:40 41.92221 -70.96758 10211 ft 308 kts 57°
2026-05-08 02:40 41.93289 -70.94282 9889 ft 305 kts 57°
2026-05-08 02:40 41.94343 -70.91830 9546 ft 302 kts 57°
2026-05-08 02:40 41.95392 -70.89389 9270 ft 300 kts 57°
2026-05-08 02:41 41.96435 -70.86975 8993 ft 300 kts 57°
2026-05-08 02:41 41.97495 -70.84560 8771 ft 299 kts 57°
2026-05-08 02:41 41.98543 -70.82158 8561 ft 297 kts 57°
2026-05-08 02:41 41.99578 -70.79758 8348 ft 296 kts 57°
2026-05-08 02:42 42.00598 -70.77374 8221 ft 291 kts 58°
2026-05-08 02:42 42.01690 -70.75126 8110 ft 284 kts 49°
2026-05-08 02:42 42.02961 -70.73153 8048 ft 275 kts 44°
2026-05-08 02:42 42.04284 -70.71319 8023 ft 272 kts 42°
2026-05-08 02:43 42.05603 -70.69510 8020 ft 279 kts 43°
2026-05-08 02:43 42.06977 -70.67529 8028 ft 285 kts 45°
2026-05-08 02:43 42.08269 -70.65588 8020 ft 271 kts 45°
2026-05-08 02:43 42.09493 -70.63728 8008 ft 258 kts 45°
2026-05-08 02:44 42.10679 -70.62044 7965 ft 244 kts 33°
2026-05-08 02:44 42.12157 -70.61191 7980 ft 225 kts
2026-05-08 02:44 42.13655 -70.60840 7989 ft 214 kts
2026-05-08 02:44 42.15114 -70.60613 7989 ft 213 kts
2026-05-08 02:45 42.16637 -70.60388 8021 ft 228 kts
2026-05-08 02:45 42.18225 -70.60107 7745 ft 233 kts
2026-05-08 02:45 42.19817 -70.59765 7493 ft 231 kts
2026-05-08 02:45 42.21400 -70.59411 7256 ft 230 kts
2026-05-08 02:46 42.22974 -70.59070 7022 ft 228 kts
2026-05-08 02:46 42.24541 -70.58734 6772 ft 227 kts
2026-05-08 02:46 42.26096 -70.58400 6525 ft 226 kts
2026-05-08 02:46 42.27646 -70.58068 6267 ft 225 kts
2026-05-08 02:47 42.29173 -70.57742 5963 ft 225 kts
2026-05-08 02:47 42.30729 -70.57408 5655 ft 225 kts
2026-05-08 02:47 42.32259 -70.57084 5468 ft 221 kts
2026-05-08 02:47 42.33782 -70.56798 5121 ft 222 kts
2026-05-08 02:48 42.35275 -70.56396 5058 ft 218 kts 12°
2026-05-08 02:48 42.36719 -70.55796 5015 ft 216 kts 14°
2026-05-08 02:48 42.38144 -70.55171 4998 ft 214 kts 14°
2026-05-08 02:48 42.39574 -70.54556 4994 ft 219 kts 13°
2026-05-08 02:49 42.41069 -70.54010 4991 ft 225 kts
2026-05-08 02:49 42.42552 -70.54474 5000 ft 223 kts 321°
2026-05-08 02:49 42.43415 -70.56161 5018 ft 223 kts 283°
2026-05-08 02:49 42.43329 -70.58233 5044 ft 221 kts 259°
2026-05-08 02:50 42.42935 -70.60245 5037 ft 221 kts 256°
2026-05-08 02:50 42.42498 -70.62231 5006 ft 220 kts 255°
2026-05-08 02:50 42.42073 -70.64217 4988 ft 219 kts 257°
2026-05-08 02:50 42.41725 -70.66219 4962 ft 219 kts 260°
2026-05-08 02:51 42.41410 -70.68292 4611 ft 231 kts 259°
2026-05-08 02:51 42.41037 -70.70418 4292 ft 236 kts 259°
2026-05-08 02:51 42.40657 -70.72572 3970 ft 234 kts 259°
2026-05-08 02:51 42.40282 -70.74677 3673 ft 227 kts 259°
2026-05-08 02:52 42.39919 -70.76728 3381 ft 218 kts 259°
2026-05-08 02:52 42.39578 -70.78662 3070 ft 206 kts 260°
2026-05-08 02:52 42.39252 -70.80487 2806 ft 188 kts 260°
2026-05-08 02:52 42.38967 -70.82113 2528 ft 168 kts 261°
2026-05-08 02:53 42.38708 -70.83580 2321 ft 157 kts 262°
2026-05-08 02:53 42.38455 -70.85006 2157 ft 154 kts 262°
2026-05-08 02:53 42.38212 -70.86406 1928 ft 153 kts 262°
2026-05-08 02:53 42.37971 -70.87814 1709 ft 153 kts 262°
2026-05-08 02:54 42.37725 -70.89219 1494 ft 155 kts 261°
2026-05-08 02:54 42.37470 -70.90658 1294 ft 160 kts 260°
2026-05-08 02:54 42.37207 -70.92150 1063 ft 166 kts 259°
2026-05-08 02:54 42.36941 -70.93632 835 ft 157 kts 259°
2026-05-08 02:55 42.36692 -70.95009 620 ft 148 kts 258°
2026-05-08 02:55 42.36214 -70.97582 251 ft 139 kts 257°
2026-05-08 02:55 42.36007 -70.98831 63 ft 134 kts 259°
2026-05-08 02:56 42.35821 -70.99952 24 ft 100 kts 256°
2026-05-08 02:56 42.35769 -71.00516 24 ft 41 kts 278°
2026-05-08 02:56 42.35793 -71.00758 24 ft 14 kts 277°
2026-05-08 02:56 42.35807 -71.00873 26 ft 11 kts 281°
2026-05-08 02:57 42.35821 -71.00980 25 ft 12 kts 279°
2026-05-08 02:57 42.35832 -71.01091 24 ft 12 kts 277°
2026-05-08 02:57 42.35844 -71.01218 24 ft 15 kts 277°
2026-05-08 02:57 42.35858 -71.01371 24 ft 18 kts 277°
2026-05-08 02:58 42.35896 -71.01525 24 ft 13 kts 325°
2026-05-08 02:58 42.35954 -71.01524 24 ft 9 kts 24°
2026-05-08 02:58 42.36050 -71.01471 24 ft 21 kts 21°
2026-05-08 02:58 42.36219 -71.01389 25 ft 27 kts 19°
2026-05-08 02:59 42.36399 -71.01303 24 ft 27 kts 20°
2026-05-08 02:59 42.36579 -71.01216 24 ft 27 kts 20°
2026-05-08 02:59 42.36671 -71.01224 24 ft 8 kts 309°
2026-05-08 02:59 42.36701 -71.01294 25 ft 9 kts 290°
2026-05-08 03:00 42.36701 -71.01346 25 ft 6 kts 256°
2026-05-08 03:00 42.36689 -71.01430 24 ft 8 kts 269°
2026-05-08 03:00 42.36702 -71.01459 25 ft 6 kts 321°
2026-05-08 03:00 42.36735 -71.01484 25 ft 0 kts 334°